Weather History for Lovelock, NV

Change the Weather History Date:

Tuesday, February 26, 2013

  Actual Average Record
Temperature  
Mean Temperature 28 °F -  
Max Temperature 44 °F 54 °F 70 °F (1950)
Min Temperature 12 °F 24 °F 2 °F (1964)
Degree Days  
Heating Degree Days 37    
Moisture  
Dew Point 8 °F    
Average Humidity 42    
Maximum Humidity 74    
Minimum Humidity 21    
Precipitation  
Precipitation 0.00 in - - ()
Sea Level Pressure  
Sea Level Pressure 30.34 in    
Wind  
Wind Speed 6 mph (ENE)    
Max Wind Speed 14 mph    
Max Gust Speed -    
Visibility 10 miles    
Events      
Averages and records for this station are not official NWS values.
T = Trace of Precipitation, MM = Missing Value Source: NWS Daily Summary

Daily Weather History Graph

Daily Weather History Graph

Search for Another Location

Airport:

Trip Planner

Search our weather history database for the weather conditions in past years. The results will help you decide how hot, cold, wet, or windy it might be!

Date:

Astronomy

Feb. 26, 2013 Rise Set
Actual Time 6:31 AM PST 5:43 PM PST
Civil Twilight 6:04 AM PST 6:10 PM PST
Nautical Twilight 5:32 AM PST 6:41 PM PST
Astronomical Twilight 5:01 AM PST 7:13 PM PST
Moon 7:05 PM PST (2/26) 6:36 AM PST (2/26)
Length of Visible Light 12h 06m
Length of Day
11h 11m
Full, 99% of the Moon is Illuminated
Feb 26
Full
Mar 4
Last Quarter
Mar 11
New
Mar 19
First Quarter
Mar 27
Full

Hourly Weather History & Observations

Time (PST) Temp. Windchill Dew Point Humidity Pressure Visibility Wind Dir Wind Speed Gust Speed Precip Events Conditions
12:53 AM 32.0 °F 22.1 °F 10.9 °F 42% 30.22 in 10.0 mi NNW 13.8 mph - N/A   Clear
1:53 AM 28.9 °F 23.9 °F 12.0 °F 49% 30.25 in 10.0 mi NE 4.6 mph - N/A   Clear
2:53 AM 23.0 °F 13.9 °F 10.0 °F 58% 30.27 in 10.0 mi SE 8.1 mph - N/A   Clear
3:53 AM 23.0 °F - 10.9 °F 60% 30.30 in 10.0 mi Calm Calm - N/A   Clear
4:53 AM 19.0 °F - 9.0 °F 65% 30.33 in 10.0 mi Calm Calm - N/A   Clear
5:53 AM 12.0 °F - 5.0 °F 73% 30.38 in 10.0 mi Calm Calm - N/A   Clear
6:53 AM 15.1 °F 9.4 °F 8.1 °F 74% 30.40 in 10.0 mi North 3.5 mph - N/A   Clear
7:53 AM 24.1 °F 19.7 °F 12.0 °F 60% 30.39 in 10.0 mi ESE 3.5 mph - N/A   Clear
8:53 AM 32.0 °F 24.8 °F 14.0 °F 48% 30.39 in 10.0 mi ENE 8.1 mph - N/A   Clear
9:53 AM 35.1 °F 30.1 °F 12.9 °F 40% 30.39 in 10.0 mi NE 5.8 mph - N/A   Clear
10:53 AM 37.9 °F - 10.0 °F 32% 30.38 in 10.0 mi Calm Calm - N/A   Clear
11:53 AM 37.9 °F - 8.1 °F 29% 30.36 in 10.0 mi Calm Calm - N/A   Clear
12:53 PM 41.0 °F 35.8 °F 7.0 °F 25% 30.32 in 10.0 mi NE 8.1 mph - N/A   Clear
1:53 PM 43.0 °F 41.3 °F 7.0 °F 23% 30.31 in 10.0 mi East 3.5 mph - N/A   Clear
2:53 PM 44.1 °F - 6.1 °F 21% 30.32 in 10.0 mi Calm Calm - N/A   Clear
3:53 PM 43.0 °F - 6.1 °F 22% 30.32 in 10.0 mi Calm Calm - N/A   Clear
4:53 PM 43.0 °F 40.3 °F 6.1 °F 22% 30.34 in 10.0 mi ESE 4.6 mph - N/A   Clear
5:53 PM 37.0 °F 32.4 °F 5.0 °F 26% 30.37 in 10.0 mi East 5.8 mph - N/A   Clear
6:53 PM 30.0 °F 26.5 °F 3.9 °F 33% 30.38 in 3.0 mi East 3.5 mph - N/A   Haze
7:53 PM 23.0 °F 14.7 °F 3.0 °F 42% 30.38 in 10.0 mi WNW 6.9 mph - N/A   Clear
8:53 PM 25.0 °F 19.3 °F 3.0 °F 39% 30.35 in 10.0 mi South 4.6 mph - N/A   Clear
9:53 PM 21.9 °F 15.7 °F 3.0 °F 44% 30.36 in 10.0 mi NNW 4.6 mph - N/A   Clear
10:53 PM 16.0 °F 8.8 °F -0.0 °F 49% 30.38 in 10.0 mi ENE 4.6 mph - N/A   Clear